Theta_e
318 318 319 321 323 325 325 325 322 319 319 311 312 315 316 320 320 319 318 319 320 320 319 317 319 321 322 322 323 321 322 326 327 323 328 338 338 340 341 340 341 341 342 342 341 339 340 340 340 340 340 340 340 340 339 339 339 339 339 339 339 338 338 337 336 334 332 329 327 326 324 322 320 321 319 318 318 323 330 331 330 330 330 330 329 331 333 332 333 332 330 327 325 324 325 325 322
320 321 322 322 324 325 325 324 319 315 314 309 312 316 317 319 319 319 319 321 323 321 319 317 319 322 322 321 321 320 326 328 327 329 333 337 338 340 340 339 340 341 342 341 341 341 341 340 339 340 339 340 339 340 340 339 340 339 339 339 339 338 339 337 336 335 331 328 327 326 324 321 319 318 318 317 315 322 330 330 329 330 330 330 329 331 333 332 332 332 330 326 324 324 324 323 320
320 322 323 324 325 324 324 323 317 310 310 309 311 317 318 318 319 320 321 322 322 320 319 319 320 322 320 321 321 320 327 328 328 331 334 337 338 339 340 340 340 341 341 342 342 341 341 339 338 338 337 338 339 339 339 339 340 339 339 339 339 338 338 338 336 335 331 327 326 326 323 321 319 316 313 312 313 322 330 330 329 329 329 330 329 331 332 332 333 332 329 325 325 325 325 322 319
320 322 324 326 326 324 324 322 317 312 309 308 311 317 319 319 320 320 322 321 320 320 320 320 321 322 321 323 322 320 327 329 331 332 334 338 338 339 340 340 341 341 341 342 342 342 341 339 338 338 336 336 338 338 338 339 339 339 340 339 339 338 338 337 336 336 332 327 327 326 324 322 320 317 311 307 311 323 329 329 328 329 329 330 330 331 331 332 332 330 327 326 326 326 326 323 318
321 322 322 326 328 324 323 321 318 314 310 311 312 317 319 319 320 321 322 319 318 319 320 320 323 323 321 323 323 322 328 329 332 334 336 338 338 339 339 340 342 341 341 342 342 343 341 339 338 337 335 335 337 337 337 338 338 339 340 339 339 339 338 337 336 335 333 329 327 327 325 323 321 317 311 304 311 325 329 329 328 328 330 330 331 332 332 332 331 329 328 328 326 324 324 321 318
323 324 322 325 326 323 322 318 315 314 314 317 315 317 318 318 319 321 321 319 318 318 318 319 322 321 321 323 324 326 329 329 331 335 337 338 338 338 339 341 342 341 341 342 342 343 340 338 338 337 335 334 336 336 336 337 338 339 339 339 339 338 338 337 336 335 333 330 328 328 325 323 321 317 311 303 309 324 329 328 328 328 330 331 333 332 332 332 330 330 328 326 323 323 323 319 319
324 324 323 323 323 323 321 315 313 314 317 319 318 317 317 318 319 320 320 319 318 317 317 318 319 319 322 324 324 327 329 331 333 336 337 337 337 337 339 340 341 341 341 342 343 343 340 338 338 338 336 334 335 335 335 336 338 338 338 338 338 338 337 337 336 334 334 332 329 328 325 323 321 316 310 304 310 323 327 328 328 328 330 330 332 331 331 331 330 330 327 323 322 324 322 318 320
322 324 324 323 323 322 320 315 316 318 317 318 318 318 317 319 319 319 319 319 318 318 317 318 319 319 321 321 324 328 327 330 333 334 336 336 337 337 338 340 341 341 341 342 343 343 338 337 338 338 337 334 334 334 334 335 337 338 337 337 337 337 337 337 335 335 335 333 330 329 326 323 321 316 309 305 311 323 327 327 327 327 328 330 330 330 330 330 329 328 325 323 323 324 321 319 321
322 323 323 324 322 320 317 316 316 318 318 317 317 317 318 318 318 318 319 319 318 318 318 318 319 319 319 319 324 327 326 329 330 332 335 335 337 337 338 340 341 342 342 342 343 342 338 337 338 338 337 335 334 334 334 334 335 337 337 336 336 336 336 336 335 335 335 333 331 329 327 324 322 317 310 304 307 321 328 328 327 327 327 328 329 329 329 329 328 326 323 323 323 323 321 319 322
321 322 322 323 320 316 313 314 317 318 318 317 317 317 318 318 318 319 318 318 317 317 320 319 318 317 317 318 322 325 327 327 329 334 335 336 337 337 339 341 341 341 342 342 342 343 339 337 338 338 338 336 336 335 334 333 333 335 337 336 335 336 336 335 335 335 335 334 332 330 328 325 323 319 312 306 303 312 324 327 327 326 326 326 327 327 327 326 326 324 323 323 323 322 320 319 321
322 320 322 321 315 312 311 313 317 319 318 317 317 316 317 317 318 318 318 318 317 317 320 318 318 318 317 318 322 323 325 326 329 335 335 336 337 338 339 341 342 341 341 342 342 343 341 338 338 338 338 337 336 336 334 334 334 334 336 336 334 335 335 335 335 334 334 334 333 331 328 325 324 320 315 310 305 304 312 322 326 327 326 326 326 325 325 324 324 323 323 323 322 321 319 318 320
323 321 321 318 314 314 314 314 315 319 318 317 317 317 317 317 317 317 317 317 316 317 318 318 318 318 317 319 322 322 324 326 331 335 335 336 337 339 340 341 342 340 341 342 342 342 341 339 338 338 338 338 337 337 336 335 334 334 334 335 334 334 335 335 334 334 334 334 334 332 329 326 324 321 317 314 310 305 305 313 322 325 325 325 324 323 323 323 323 323 323 322 320 319 318 318 319
323 322 320 317 318 318 316 316 316 319 318 317 318 316 317 316 316 317 316 316 316 316 317 318 318 318 318 319 321 322 323 327 333 335 335 336 336 338 341 341 342 341 341 342 342 342 342 340 340 339 339 338 338 338 336 335 335 335 334 334 334 334 335 334 333 333 333 333 334 332 330 327 325 322 319 317 313 309 306 309 318 322 323 323 322 320 320 320 320 320 320 318 317 318 318 318 319
324 323 321 319 320 320 317 317 317 316 315 318 317 316 317 316 316 316 316 316 316 316 316 317 318 317 317 318 320 319 324 330 334 333 334 335 335 337 340 340 341 341 341 342 342 341 342 341 341 340 339 339 338 338 337 336 335 335 334 333 334 334 335 334 333 333 332 333 334 333 331 328 326 323 320 319 317 314 310 311 316 320 321 320 317 314 312 312 310 310 309 309 311 315 317 317 318
323 322 321 321 318 317 317 318 318 315 315 318 316 315 316 315 316 315 316 316 316 316 315 316 316 317 316 317 321 321 328 332 332 332 333 334 335 336 338 339 340 340 340 340 340 340 341 340 341 340 340 339 339 339 338 337 335 336 335 334 334 334 334 333 333 333 332 333 333 332 332 329 327 324 322 321 320 318 314 311 312 315 315 311 307 305 304 303 301 301 302 303 307 312 315 316 316
322 323 321 318 315 315 316 318 318 315 316 317 315 316 316 315 314 314 315 315 315 316 315 316 316 316 316 317 323 329 332 331 331 331 333 333 334 336 337 338 339 338 338 339 339 339 340 340 340 340 340 340 339 339 339 338 336 335 335 334 334 334 334 333 333 332 332 333 333 332 331 330 327 323 322 321 320 319 317 314 310 308 306 303 301 301 300 300 300 300 300 301 304 308 311 311 310
321 323 320 315 314 316 317 319 317 315 317 317 314 315 316 315 314 314 314 313 315 316 315 316 316 316 317 315 319 330 331 329 330 331 333 333 334 335 336 338 337 337 338 338 338 338 338 339 339 339 339 339 339 339 339 339 338 336 335 334 333 333 334 333 333 333 332 333 332 332 332 331 327 323 322 321 321 320 319 316 312 309 305 302 300 300 299 299 299 299 299 300 302 304 306 306 306
320 320 317 314 316 318 318 319 317 318 318 316 315 315 316 316 314 313 314 314 314 316 315 315 316 315 316 315 317 327 329 328 330 332 333 334 334 335 336 336 337 337 337 337 337 337 336 337 338 338 339 339 339 339 339 339 338 337 337 336 333 332 333 332 333 333 333 333 333 332 332 330 328 325 323 321 321 321 320 318 315 311 308 304 301 300 299 299 299 299 299 299 301 302 304 305 306
319 320 317 316 319 319 318 319 317 318 318 316 316 315 315 316 315 315 314 315 315 315 315 315 316 315 316 315 317 326 329 329 330 332 333 333 334 335 335 336 336 335 335 335 336 336 336 336 336 337 338 338 339 339 339 339 338 337 337 337 335 333 332 332 333 333 334 334 333 333 333 331 329 327 324 322 322 321 320 318 315 312 310 308 304 301 300 300 300 299 299 300 302 304 306 307 307
318 320 318 318 320 318 317 318 317 316 316 317 316 315 316 315 316 315 314 315 316 316 316 316 317 316 317 315 317 325 328 329 330 331 332 333 334 334 335 335 335 335 335 334 334 335 336 336 335 335 337 337 338 338 338 338 338 337 337 337 337 335 333 333 333 333 335 335 333 333 333 333 331 328 325 323 322 322 320 318 316 313 311 310 308 304 301 301 300 301 303 305 307 308 309 308 309
317 316 316 317 317 317 316 316 316 314 315 317 316 315 315 315 315 315 315 315 316 316 316 316 316 316 318 316 317 323 328 330 329 331 332 333 334 334 335 335 335 334 334 334 335 335 335 336 335 335 335 336 337 337 337 337 337 337 338 338 337 337 335 334 334 334 334 334 334 334 334 333 331 329 326 324 323 322 321 319 315 313 311 309 308 306 303 303 305 307 310 310 310 309 309 309 309
316 315 316 316 316 317 315 314 314 313 314 316 316 315 315 315 314 315 315 315 316 316 316 317 317 317 319 317 318 322 326 329 329 330 332 332 333 334 335 334 335 334 333 334 334 334 333 333 335 336 335 335 336 336 336 337 336 336 336 337 337 337 336 335 336 335 334 334 334 334 334 334 332 330 327 325 324 323 322 321 316 313 311 309 308 306 307 309 311 312 311 310 311 312 312 312 311
316 316 315 315 315 316 315 313 313 312 315 316 316 315 315 315 315 315 315 316 316 316 316 317 316 317 319 319 319 320 324 327 328 329 331 332 333 333 334 334 334 334 333 333 333 331 330 331 334 335 335 334 334 334 335 335 335 334 334 336 337 337 337 336 336 335 335 335 334 334 334 334 333 330 327 326 326 324 323 321 318 315 312 311 310 310 312 314 313 312 311 311 313 314 313 311 309
316 316 315 314 314 315 314 313 312 312 315 315 315 315 315 315 315 316 315 316 316 316 316 316 315 314 316 319 320 320 323 326 327 329 330 331 332 333 334 334 334 333 331 332 333 331 328 329 332 334 334 333 333 333 333 333 334 334 334 336 337 337 337 337 336 335 335 335 334 334 334 334 333 330 328 328 328 326 325 322 319 317 315 315 314 314 315 314 312 312 313 313 313 313 311 309 307
316 316 315 314 314 314 313 312 312 312 313 313 313 314 316 315 314 314 315 316 316 316 316 315 315 314 314 317 319 320 321 324 326 327 329 330 332 333 333 333 333 333 331 331 331 330 328 328 330 332 333 332 332 333 333 332 333 333 335 337 336 336 336 336 336 336 335 335 335 335 334 334 333 331 330 330 328 328 327 323 320 318 317 317 316 315 315 313 312 312 313 313 312 311 309 306 305
316 316 315 315 315 314 312 313 312 313 313 313 314 315 316 314 313 314 315 316 316 316 315 315 315 314 314 315 317 319 319 322 325 326 328 329 331 333 334 333 332 332 331 331 330 329 328 329 330 330 330 330 331 331 331 332 332 332 334 335 335 336 337 337 336 336 335 335 335 335 334 333 333 332 331 330 329 328 327 324 321 320 319 317 316 315 315 313 313 312 311 310 310 310 306 303 302
316 315 315 315 315 314 313 314 313 313 314 313 314 316 315 313 313 315 316 316 316 315 315 315 315 315 315 315 315 318 319 321 324 326 327 328 329 331 333 333 331 330 330 331 330 329 328 328 330 330 327 328 329 329 329 330 330 331 332 333 334 335 336 337 336 335 335 335 335 334 335 334 333 333 332 330 329 328 327 325 323 322 321 318 316 316 316 315 314 313 311 308 308 308 304 300 299
316 316 316 315 315 315 314 315 314 314 314 313 314 316 316 314 313 315 317 315 315 315 315 316 315 315 315 316 316 317 318 319 322 324 325 327 327 327 329 331 330 329 329 330 330 329 327 326 328 328 326 327 328 328 327 328 328 329 330 331 333 333 335 336 335 335 335 335 335 334 334 334 334 333 332 331 329 329 328 326 324 323 322 319 318 318 316 315 314 313 310 308 307 305 301 298 297
315 316 317 316 316 316 315 316 315 315 315 313 314 315 315 317 315 316 317 314 315 315 316 316 316 316 316 316 317 317 318 318 321 323 324 325 325 324 325 328 329 329 329 329 329 328 326 325 326 326 325 326 327 327 325 325 326 327 329 329 331 332 333 335 334 334 334 335 335 334 334 334 334 333 332 331 330 329 329 327 324 322 321 321 320 318 316 315 314 313 310 308 306 304 300 297 296
316 316 317 317 316 316 317 316 315 316 315 314 314 313 314 318 318 317 317 315 316 315 316 316 317 317 316 317 317 317 318 318 319 321 322 323 323 323 323 325 327 328 328 327 327 325 324 324 325 325 325 325 326 325 323 324 325 327 328 329 329 330 331 332 333 332 332 333 333 333 333 334 333 333 332 331 330 329 329 327 323 321 321 321 320 317 316 315 314 312 309 306 304 302 299 297 296
317 316 316 317 315 315 317 316 315 316 314 314 315 312 314 318 318 317 316 315 315 316 316 317 317 317 317 317 317 317 317 318 318 319 320 320 322 323 323 323 324 325 326 324 324 324 322 323 324 324 323 323 323 322 321 321 323 325 327 328 328 329 329 329 330 330 330 331 331 331 332 332 333 332 332 330 329 329 329 327 323 321 321 320 319 317 316 315 313 311 307 303 301 299 298 296 295
318 314 313 317 314 314 318 315 315 316 314 314 315 313 315 318 318 316 313 314 314 315 316 317 317 317 317 317 317 317 317 318 318 318 318 319 320 322 322 322 322 322 323 322 321 321 321 320 321 322 321 320 319 318 317 317 320 323 325 326 327 327 327 328 327 327 328 328 328 328 329 331 332 331 330 329 329 328 327 325 322 321 320 319 318 316 316 314 311 308 305 303 302 299 296 295 294
317 313 312 316 313 313 316 314 314 316 315 315 315 314 316 318 318 316 313 314 314 315 316 317 317 317 317 317 317 317 317 317 318 318 317 318 319 319 320 321 321 320 321 321 320 320 319 318 318 318 317 317 316 317 316 316 319 322 323 324 324 325 326 326 325 326 326 327 328 328 328 330 331 330 329 328 328 326 325 324 322 321 320 318 317 316 315 313 310 307 303 302 305 302 296 294 294
314 314 313 315 315 312 313 314 315 314 314 316 316 315 316 316 317 317 315 315 315 316 316 317 317 317 317 318 317 317 317 317 317 318 317 317 317 317 317 318 319 319 319 320 320 319 319 318 317 317 316 316 317 317 315 315 318 320 321 321 321 323 324 324 324 326 327 327 329 329 329 330 330 329 328 328 327 326 325 325 324 321 319 318 318 316 313 311 309 308 304 302 304 303 297 294 293
313 314 312 312 314 312 312 314 315 315 315 315 316 316 316 316 317 317 317 317 316 317 317 317 317 317 317 317 318 318 318 317 318 318 318 317 316 316 316 316 317 318 318 319 319 319 318 318 317 316 316 316 316 315 314 315 316 317 318 318 319 322 324 325 326 326 327 329 330 330 330 330 330 328 327 327 326 327 327 326 325 322 318 318 317 315 311 310 308 307 307 305 303 302 298 295 292
313 315 313 311 312 312 313 315 314 314 315 315 315 315 316 316 316 317 317 317 317 317 317 317 317 317 317 317 317 318 318 318 319 319 318 317 316 316 315 315 316 316 317 317 318 318 317 317 316 315 315 315 315 315 314 314 315 316 317 318 319 321 324 326 325 325 327 329 330 330 330 330 330 328 327 327 327 328 327 326 325 321 319 318 316 313 311 311 310 308 307 306 302 299 296 294 292
313 314 313 313 313 312 315 317 313 314 314 314 316 315 316 316 316 317 316 317 316 316 317 317 317 317 318 318 318 319 319 319 321 320 318 318 316 315 315 314 315 315 316 316 317 317 316 316 316 315 314 314 314 314 314 313 314 316 316 317 318 319 322 324 324 325 326 327 328 329 329 329 329 328 328 328 327 327 326 324 323 320 318 316 314 313 311 311 309 308 307 305 304 300 294 292 291
314 313 313 313 314 313 316 316 313 313 313 314 315 315 316 316 316 316 316 316 316 316 317 317 318 317 318 318 319 319 319 322 323 320 318 317 315 315 314 314 314 315 315 315 316 316 316 315 315 315 314 313 313 313 314 313 314 316 316 317 317 318 321 322 322 324 325 325 325 325 326 327 327 327 328 328 326 326 325 324 322 319 316 314 313 311 310 310 309 308 307 303 302 300 294 291 291
315 314 315 314 315 315 315 315 314 313 313 314 315 315 315 316 315 316 316 315 316 316 316 317 318 318 318 318 319 319 320 321 323 320 317 316 315 314 314 313 314 314 315 315 316 316 315 315 314 314 313 312 312 312 313 313 314 315 316 316 315 316 319 320 321 322 322 323 322 323 324 326 327 326 326 326 325 325 324 324 322 318 316 315 314 312 310 311 309 308 308 305 300 296 293 291 293
315 316 314 314 317 315 311 313 314 314 313 314 315 315 316 316 316 316 316 316 316 317 317 318 319 319 319 319 319 319 319 320 321 320 318 315 315 314 313 313 313 314 315 315 315 315 315 315 314 314 313 311 311 312 313 313 314 315 315 314 313 314 318 319 319 320 321 321 321 322 323 324 324 324 324 324 324 324 323 323 322 319 317 316 316 315 313 312 310 307 307 306 301 295 293 292 294
316 317 315 313 316 315 312 314 315 314 314 314 315 315 314 317 319 318 318 319 318 318 318 318 319 319 320 320 320 320 319 320 320 320 319 316 315 314 313 313 313 314 315 315 315 315 315 314 314 314 313 311 311 312 312 313 313 313 313 313 313 314 316 316 316 317 318 319 320 321 321 321 322 323 323 322 321 323 323 322 322 320 317 316 316 316 314 312 311 308 306 305 303 299 295 294 295
313 318 318 315 314 315 315 317 316 312 313 315 316 312 311 316 319 319 319 319 318 319 319 319 319 320 320 320 320 320 320 320 319 319 318 317 315 314 313 312 313 314 314 315 315 315 315 314 313 313 313 311 310 311 311 312 312 312 312 313 313 313 313 313 314 315 317 319 320 320 320 320 321 321 321 321 321 322 323 322 322 320 318 316 316 316 313 310 309 309 307 305 303 301 298 296 296
311 317 319 316 316 317 317 318 315 311 311 315 315 312 312 314 315 316 317 316 316 317 318 319 319 320 320 321 321 321 320 320 319 318 317 317 316 314 313 312 313 313 314 315 315 315 314 313 313 313 312 310 310 310 310 311 311 312 313 313 313 313 312 313 314 315 317 319 320 320 320 319 320 320 320 321 322 322 322 322 321 320 319 318 316 314 312 310 310 309 308 305 302 300 299 298 296
314 318 317 316 317 318 318 318 315 314 316 316 315 315 315 314 314 316 316 315 315 316 316 318 319 319 320 320 321 320 320 319 319 318 316 316 316 315 313 312 312 313 314 315 315 314 314 313 313 312 311 310 309 309 309 310 311 312 313 313 313 314 314 314 315 316 317 319 320 320 320 320 320 320 319 321 322 321 321 322 321 319 319 316 313 313 312 310 309 308 306 304 302 300 301 301 298
318 317 317 317 318 319 319 317 315 317 318 315 316 318 315 313 314 316 317 315 315 316 317 318 318 321 322 321 320 319 317 317 316 316 315 315 315 314 313 312 312 312 313 315 314 314 313 312 312 312 311 310 309 308 308 310 311 312 313 312 312 313 314 314 314 315 316 318 319 319 319 319 319 319 319 320 321 320 320 321 320 318 316 314 312 312 311 309 308 307 305 302 301 301 302 303 299
316 316 317 318 319 318 319 318 315 316 316 315 318 319 313 310 312 316 318 316 316 317 316 318 319 323 324 321 320 317 315 316 315 314 314 314 314 313 312 312 312 312 313 314 314 313 313 312 312 311 311 310 308 306 308 310 311 312 312 312 311 312 312 312 312 313 314 316 316 316 316 317 317 316 318 319 319 318 317 317 317 316 315 313 312 310 308 307 306 307 306 303 303 303 303 302 300
316 318 318 318 318 318 317 317 315 314 315 315 318 317 312 310 312 315 318 317 317 318 316 318 321 323 323 320 318 316 315 315 314 313 312 312 312 311 311 311 311 312 313 314 313 312 312 312 311 311 310 309 307 306 308 310 310 311 312 312 312 312 311 311 311 311 312 313 314 314 314 314 315 315 316 318 317 315 315 315 313 312 311 310 309 307 307 308 306 306 307 304 304 304 303 302 300
318 319 317 315 316 317 316 316 317 315 314 315 317 317 314 311 311 314 318 317 317 318 316 316 317 321 323 320 317 315 315 315 314 313 312 311 310 310 310 310 310 311 313 313 313 312 312 311 311 310 310 309 307 305 307 310 310 310 311 310 311 311 311 312 312 312 312 313 313 314 313 312 313 314 314 315 315 315 316 315 312 309 308 308 309 308 308 308 308 308 308 306 305 304 302 301 299
318 317 314 314 314 315 316 318 319 316 315 315 316 318 317 313 313 315 317 317 317 317 317 317 317 319 323 322 318 316 315 315 314 314 313 311 310 310 309 309 310 311 312 313 312 312 311 311 310 310 309 309 306 304 306 309 310 309 309 309 310 311 311 312 312 312 313 313 315 315 312 313 314 314 314 315 316 317 317 317 314 312 310 310 311 311 309 309 308 308 308 306 305 303 301 300 299
316 315 315 314 312 314 317 317 318 316 315 315 315 317 317 314 314 316 316 316 316 317 317 319 320 319 321 322 319 317 315 315 315 315 314 313 312 311 310 309 310 311 312 312 312 311 311 310 310 309 309 308 306 304 305 308 309 309 309 310 310 310 311 311 311 311 312 314 315 316 315 315 316 316 317 317 318 318 317 317 316 313 312 311 311 311 310 309 308 306 306 304 303 302 300 299 299
316 316 316 315 312 313 315 315 315 315 314 313 314 316 315 313 315 316 317 317 317 317 318 319 320 320 321 321 320 319 316 315 315 315 315 314 313 312 310 310 310 311 312 312 311 311 310 310 309 309 308 308 306 303 304 306 308 309 310 310 310 310 310 310 310 310 312 314 314 315 316 315 316 317 317 316 317 317 316 314 312 309 309 309 308 308 308 308 306 305 304 303 302 301 300 299 299
316 317 318 317 315 313 312 314 314 313 313 314 315 316 315 314 315 316 316 316 316 317 318 318 319 319 320 320 321 322 319 314 314 315 315 314 312 312 311 310 311 311 311 311 311 310 310 309 309 308 308 308 306 303 303 304 306 308 310 309 308 309 309 309 309 310 311 312 311 311 313 315 316 314 312 313 315 314 312 310 307 305 306 306 305 305 305 305 305 304 303 302 301 300 299 299 298
316 318 319 318 317 314 313 314 314 312 313 314 314 314 314 313 315 316 316 316 316 317 317 317 318 319 320 320 322 325 321 315 315 316 316 314 312 311 310 310 311 311 311 311 310 310 310 309 309 308 308 308 306 304 303 304 305 307 308 308 307 307 308 309 310 310 311 310 308 307 309 310 310 308 307 309 310 310 309 307 304 303 302 303 302 302 303 303 303 302 301 300 299 299 298 298 296
317 317 317 316 316 315 313 314 314 314 315 314 313 313 312 311 314 317 316 315 316 316 317 317 318 319 320 322 325 326 321 316 316 317 316 314 312 311 310 310 311 311 311 311 311 310 310 309 309 308 308 308 307 304 303 303 304 305 306 306 306 306 307 309 309 310 310 309 308 306 305 303 303 301 302 306 308 308 308 304 301 300 299 299 300 300 301 302 301 300 299 299 298 298 297 295 292
316 316 316 315 315 315 313 314 315 315 316 315 314 313 313 312 313 315 316 316 316 316 316 317 317 318 319 321 324 324 320 317 317 316 315 314 312 311 310 309 310 311 311 311 311 310 309 309 308 308 308 307 307 304 302 302 303 303 304 305 305 306 307 308 308 307 308 308 307 306 304 302 300 299 301 304 308 308 305 301 298 298 298 298 299 300 300 300 299 299 298 297 297 296 295 292 289
314 315 316 316 317 315 314 315 314 314 315 316 315 314 313 314 314 314 315 315 316 316 317 318 318 319 319 320 323 324 322 320 318 316 315 314 312 311 310 309 309 310 310 310 310 310 309 309 308 308 307 307 307 304 302 302 303 303 303 304 304 305 307 308 306 305 306 306 306 306 305 302 300 299 300 302 304 304 301 298 297 297 297 297 298 299 299 298 297 297 296 296 294 292 291 289 287
313 313 315 316 316 315 315 316 314 314 315 314 315 315 313 314 316 316 316 316 316 317 317 319 320 320 320 321 323 324 322 319 318 317 316 314 312 310 309 308 309 309 310 310 310 310 309 308 308 307 307 307 307 305 303 302 302 303 303 304 304 305 307 306 304 303 304 305 305 304 304 302 299 298 299 299 299 299 297 295 295 296 296 297 298 298 297 296 295 294 294 293 291 289 288 287 287
315 313 314 315 316 316 316 318 316 315 315 315 315 316 314 315 318 316 316 317 318 320 321 321 321 321 322 322 321 320 319 318 318 317 315 314 312 310 308 307 307 308 309 310 309 309 309 308 308 307 307 306 306 306 304 302 302 302 303 304 305 306 307 305 302 302 303 303 303 303 303 301 299 298 298 297 297 296 294 292 293 294 295 295 296 296 294 293 293 292 291 289 288 287 287 287 287
Wind_Speed
5 4 2 2 2 4 5 5 3 2 2 2 3 2 4 4 2 4 5 4 3 4 3 2 2 2 2 4 6 6 6 7 6 3 2 6 10 11 10 10 11 11 12 11 11 12 11 11 11 9 8 9 11 10 10 11 12 12 12 12 12 13 13 15 14 13 12 13 14 14 13 14 15 16 16 16 17 19 20 19 19 18 18 17 17 17 17 16 17 17 17 18 18 19 20 20 21
4 4 2 3 4 5 2 2 3 2 2 3 3 2 6 5 3 4 5 4 4 5 3 2 1 0 2 5 6 4 4 8 7 6 6 12 12 9 9 9 11 12 12 12 12 11 10 11 11 10 9 9 10 10 10 10 11 11 11 12 12 12 13 14 13 13 12 13 14 13 14 15 16 16 16 16 17 20 20 19 19 18 17 17 17 17 16 16 17 18 18 18 18 19 20 21 22
3 2 2 3 5 5 2 3 3 0 1 3 4 4 5 5 4 5 7 7 7 6 4 4 2 1 3 4 4 4 3 6 7 8 8 12 11 9 9 10 11 12 12 12 11 10 10 11 11 11 9 9 10 10 10 10 10 11 11 11 12 12 12 13 13 13 12 13 13 13 14 15 16 16 15 16 17 20 20 19 18 17 17 17 17 17 17 17 18 18 18 18 19 20 20 21 23
1 2 4 4 4 5 4 3 2 2 1 3 4 6 5 4 6 8 9 8 7 5 4 3 3 2 4 4 4 4 3 6 6 6 8 9 8 11 11 11 12 11 12 11 11 10 9 11 11 10 9 9 10 10 10 10 10 11 11 11 11 11 12 12 12 12 12 12 12 12 14 15 15 15 15 16 17 20 20 18 18 17 17 17 17 17 17 17 18 18 17 18 18 19 20 19 21
1 3 5 5 4 1 2 1 1 2 3 3 2 6 5 4 8 9 9 7 7 4 3 2 1 3 2 4 4 3 4 6 5 5 8 9 9 12 11 11 12 11 12 11 11 11 10 12 11 10 9 8 10 10 10 10 10 11 10 10 11 11 11 12 12 12 11 11 12 12 13 14 14 14 15 15 17 19 19 18 18 18 17 17 17 17 17 18 17 17 18 18 18 18 18 19 21
1 3 5 5 2 1 3 2 1 2 5 4 3 6 5 6 8 10 9 8 6 3 2 2 1 0 2 1 2 3 4 4 7 6 7 10 8 10 10 11 11 11 12 11 11 10 11 13 11 10 9 8 9 9 9 9 10 10 10 10 10 10 11 11 11 11 11 11 11 12 13 14 14 14 14 15 17 18 19 18 18 18 18 17 17 17 18 18 18 17 17 17 17 17 17 19 22
2 3 3 4 2 1 4 0 1 3 4 4 4 5 6 7 8 10 10 7 5 3 2 2 2 4 1 3 1 4 5 4 7 6 7 10 9 9 10 11 11 12 11 11 11 10 12 13 12 11 9 8 8 9 9 9 10 10 10 10 10 10 10 11 10 10 11 11 11 12 13 14 13 14 14 15 16 18 18 18 18 18 17 17 17 17 18 18 18 17 16 15 16 17 17 20 23
3 2 1 3 3 2 3 1 2 3 4 2 3 4 6 8 8 9 9 5 5 5 5 3 3 5 1 1 1 5 6 6 7 7 8 10 9 9 11 11 11 11 11 11 11 10 13 13 12 11 10 8 8 9 9 9 11 10 9 9 9 10 10 10 10 10 11 10 11 12 13 13 13 13 14 15 16 18 18 18 18 18 17 17 17 17 17 16 16 16 15 16 16 16 17 20 23
4 3 1 3 3 2 1 1 2 3 4 4 4 4 5 7 7 7 7 5 4 5 5 4 3 3 2 3 2 6 7 7 8 8 8 9 9 9 11 11 11 12 12 11 11 11 14 14 13 11 10 9 8 9 9 10 11 10 9 9 9 10 9 9 10 10 10 10 10 11 12 13 12 13 14 14 15 17 17 17 17 17 16 16 16 16 16 16 16 16 16 16 16 15 17 19 21
4 3 2 3 2 2 2 1 2 3 4 4 4 5 5 6 6 5 6 5 4 4 4 4 3 2 1 3 4 5 7 9 9 9 8 8 8 8 10 10 11 13 12 11 10 11 14 15 13 12 11 10 9 8 8 9 10 10 9 9 10 10 9 9 9 10 10 10 10 10 11 12 12 12 13 14 15 16 17 17 17 16 16 15 15 15 15 16 16 16 17 16 15 15 17 18 19
4 2 2 3 3 2 1 2 3 3 5 4 4 6 6 7 6 5 5 4 4 3 5 4 4 3 3 2 4 5 8 10 9 9 10 8 8 8 9 9 10 12 12 12 10 11 13 15 13 12 12 11 10 8 8 9 9 11 10 10 10 10 10 9 9 10 10 9 10 10 11 11 11 12 13 14 14 15 16 16 17 16 16 16 16 16 16 17 17 17 16 16 15 16 17 17 18
4 4 3 4 3 1 2 1 3 4 5 5 6 7 6 7 7 6 6 4 5 4 5 6 1 1 5 3 3 6 9 9 8 10 11 9 9 9 8 8 9 11 12 12 11 10 11 13 13 12 12 11 10 10 9 9 9 10 11 12 11 11 10 9 9 9 9 9 10 10 10 11 11 11 12 13 14 14 15 16 16 16 16 16 15 15 16 17 17 16 16 15 15 16 17 17 17
3 3 5 4 1 1 1 1 2 2 3 5 6 8 7 8 8 6 6 5 5 6 4 5 1 2 5 2 5 6 9 10 9 11 11 9 10 9 6 6 7 9 11 11 11 11 10 11 12 12 12 11 11 11 11 10 10 10 11 12 11 11 10 10 9 9 9 9 10 10 10 10 11 11 12 12 13 14 14 15 15 15 15 14 15 15 15 15 15 15 15 15 16 17 17 17 17
3 1 4 2 0 2 1 1 1 2 3 6 7 9 8 7 6 4 5 6 5 3 3 3 1 2 4 2 5 5 9 12 10 11 12 9 10 9 7 7 7 7 9 9 9 10 10 10 10 11 12 12 12 11 11 11 11 11 12 12 12 11 10 10 10 9 9 10 10 9 9 10 10 10 11 12 12 13 13 15 15 15 14 14 14 14 14 14 15 15 15 16 17 18 18 17 17
3 1 4 2 1 3 2 2 0 3 2 9 8 10 9 4 2 3 3 4 3 5 4 2 1 1 2 1 3 5 11 14 11 11 12 10 10 9 7 8 8 7 8 8 8 11 11 10 10 11 12 13 12 11 11 11 12 12 12 12 12 11 10 11 10 10 10 10 9 9 9 10 10 10 10 11 11 11 12 13 14 14 14 13 14 14 14 15 16 17 17 18 18 18 17 17 17
3 2 4 4 3 3 4 3 1 3 3 9 8 9 10 5 2 4 0 2 2 4 2 2 3 2 4 4 5 9 13 13 11 11 11 11 10 8 7 8 8 6 8 8 9 12 11 9 10 9 10 12 12 11 11 11 12 12 12 12 12 12 11 11 11 10 9 9 9 9 9 10 10 10 10 11 11 11 11 12 13 13 13 13 14 15 15 16 17 18 18 18 18 18 18 17 17
2 3 4 4 4 3 4 4 3 1 4 9 8 9 9 7 4 2 2 2 2 3 3 3 4 2 3 6 6 9 12 11 11 12 12 11 10 9 8 10 10 8 10 11 11 11 9 9 10 9 8 10 12 12 11 11 13 13 12 12 12 12 11 11 11 10 10 10 10 9 10 11 11 12 11 11 11 10 10 11 12 12 13 14 15 16 16 17 18 19 19 20 19 19 19 19 19
3 4 5 5 4 2 2 4 2 1 2 7 9 10 9 7 7 4 3 5 6 3 5 5 3 3 4 8 8 9 11 10 12 13 13 12 11 11 10 12 14 12 11 12 13 13 10 10 10 9 8 9 11 11 10 10 13 15 13 12 12 12 12 12 11 11 11 11 11 10 11 12 12 12 12 12 12 11 11 11 11 12 13 15 16 17 17 18 19 20 21 22 22 21 21 20 20
3 3 5 4 0 2 3 1 2 3 2 5 9 9 7 4 6 7 5 7 8 7 7 8 7 7 8 9 10 11 11 11 13 13 14 14 13 14 14 13 15 15 14 12 13 15 16 15 12 10 9 9 10 10 10 10 11 15 14 13 13 13 13 13 13 13 12 13 13 11 11 13 13 12 13 13 12 12 11 11 11 12 14 15 17 18 18 19 20 21 22 23 22 21 20 19 19
2 2 6 1 4 4 4 4 5 5 3 3 8 6 6 2 4 6 6 7 7 9 8 8 9 10 12 11 12 13 12 13 13 14 14 15 15 14 15 15 16 15 15 13 12 16 18 18 15 13 13 9 8 8 10 11 10 12 14 14 14 14 14 14 14 14 14 15 14 12 11 13 14 14 14 13 12 13 12 11 12 13 14 16 17 18 19 20 21 23 23 21 18 17 17 17 17
1 2 3 3 3 1 4 4 5 5 3 2 6 6 7 4 3 5 6 7 7 8 9 9 9 8 12 13 13 14 14 14 15 15 15 16 16 15 15 16 16 15 14 14 13 16 18 18 18 17 16 12 9 9 9 11 12 11 13 14 15 16 16 16 15 15 15 15 14 13 11 12 14 15 16 14 13 14 12 11 12 13 15 17 18 20 21 22 23 22 19 18 17 18 18 18 18
2 1 2 5 3 1 4 3 4 4 2 2 6 6 6 5 3 6 8 9 5 1 2 4 2 1 9 14 13 14 14 15 16 17 17 18 17 16 16 15 16 15 15 16 16 17 17 18 19 19 19 15 12 12 10 12 14 14 14 13 15 16 16 17 15 15 17 16 16 15 12 12 13 15 17 16 14 15 14 13 13 15 17 19 20 22 22 20 19 16 15 19 21 21 21 20 18
2 2 3 4 4 3 3 2 2 2 1 3 4 2 3 4 6 7 10 13 4 6 6 5 6 6 7 12 13 13 14 15 17 19 19 19 19 18 17 16 17 16 14 16 16 16 17 18 21 20 19 17 14 13 13 13 13 15 17 15 15 15 16 18 17 17 17 18 19 17 14 14 14 16 18 16 15 15 15 14 14 16 18 18 18 19 18 15 15 15 18 23 24 23 22 20 19
4 1 5 3 4 3 2 2 1 1 1 1 1 1 2 7 6 3 8 14 9 2 7 6 6 6 5 9 12 12 14 16 17 19 19 18 19 18 17 16 16 15 14 16 15 15 16 17 20 21 19 18 14 12 13 12 11 14 17 17 18 16 16 18 19 19 18 17 19 18 15 16 15 17 19 17 15 15 14 14 16 18 17 14 15 17 15 15 18 21 24 25 25 24 22 22 21
4 1 5 2 3 3 3 2 2 1 1 2 2 4 4 3 1 3 10 13 11 6 5 5 4 5 5 8 10 11 12 15 16 16 17 16 16 17 17 16 15 15 16 18 16 14 15 16 18 18 18 17 14 13 13 13 13 13 13 15 18 18 18 19 17 18 18 17 19 20 18 18 17 17 19 17 16 17 15 15 19 20 17 14 15 16 15 18 23 25 27 26 25 25 24 23 23
0 4 5 4 4 4 3 3 3 1 1 0 4 6 3 2 2 7 15 13 7 5 5 4 5 5 6 7 9 11 11 14 15 16 16 15 14 16 18 17 16 17 17 18 17 14 15 18 20 17 15 14 14 14 15 15 15 16 14 13 16 19 20 19 16 15 17 18 20 20 19 19 18 19 22 20 18 19 15 17 23 23 20 18 18 19 19 22 26 27 26 26 25 25 25 25 24
3 6 5 4 5 4 2 3 4 2 1 2 5 5 2 3 1 8 8 4 3 4 6 6 5 8 9 8 9 11 11 13 15 14 14 14 14 16 18 18 18 17 17 19 18 16 16 20 23 20 16 17 17 16 15 15 16 18 18 14 14 18 19 18 17 16 16 19 20 20 19 19 19 20 23 23 22 21 17 19 25 24 24 24 23 23 23 26 28 27 26 26 26 26 26 25 25
4 6 5 5 4 4 4 4 5 3 2 2 4 5 6 3 5 11 4 4 3 5 7 7 7 8 8 9 8 8 10 12 13 13 15 16 16 17 19 19 20 18 18 19 18 17 17 20 23 21 20 21 22 20 16 16 16 18 20 18 14 15 18 17 17 17 15 17 20 22 21 20 19 19 22 24 25 25 22 23 26 26 26 27 25 24 25 27 28 27 26 27 27 27 26 26 25
4 4 4 6 5 5 7 5 4 4 2 2 2 5 10 9 12 15 6 6 4 5 6 7 8 8 7 8 7 7 8 10 11 13 15 17 16 16 19 20 19 18 18 19 18 17 17 20 22 21 22 23 25 24 18 16 17 17 19 20 18 15 17 18 17 15 13 15 18 20 22 21 21 21 22 24 27 28 26 26 28 28 28 27 25 25 27 28 28 27 27 28 27 27 27 26 25
4 4 4 4 6 6 8 5 4 4 2 3 3 5 6 9 14 10 6 6 5 6 8 8 8 7 7 7 7 7 8 10 12 14 15 15 15 15 18 18 18 19 17 17 18 18 18 21 24 23 25 26 27 25 20 16 15 16 18 19 20 17 16 18 19 18 16 16 17 17 20 22 23 22 21 24 28 29 27 28 30 29 28 28 27 28 29 28 27 27 28 28 26 27 27 26 24
4 3 3 4 5 3 7 5 5 5 3 4 4 5 6 5 4 6 6 4 5 8 9 8 8 7 7 7 7 8 8 11 13 15 15 16 15 14 16 17 18 18 17 17 19 20 19 23 27 26 26 26 26 25 22 19 16 16 17 19 21 19 18 17 16 17 19 21 20 19 20 22 23 23 21 23 27 29 29 29 30 30 29 29 29 30 29 28 27 28 29 28 26 25 26 25 23
3 3 4 4 4 3 6 4 5 4 2 6 6 4 7 6 3 7 3 2 4 8 9 8 8 8 7 7 7 8 8 11 14 15 15 16 16 15 15 17 18 19 18 17 19 21 20 22 26 26 25 25 23 22 23 21 18 16 17 20 23 20 20 18 14 15 19 23 25 25 23 24 25 24 23 22 23 28 29 30 31 32 32 32 31 31 29 29 29 29 27 27 27 26 26 25 23
4 5 4 4 5 4 5 3 3 2 2 7 10 6 5 2 3 6 4 3 5 7 7 8 8 8 8 7 7 7 7 9 12 15 16 17 17 17 17 18 18 19 19 17 18 21 19 19 23 24 22 22 19 17 20 20 17 16 17 21 24 22 19 16 16 19 22 25 26 27 26 26 26 25 24 22 22 25 28 30 32 34 34 33 32 31 30 30 31 30 25 25 27 27 26 25 24
6 5 4 4 5 4 3 3 3 3 3 6 10 9 10 8 6 4 6 7 7 7 8 9 9 9 9 8 7 8 8 9 10 13 17 18 18 18 18 19 19 19 20 19 18 19 19 17 19 22 20 18 16 16 19 18 15 15 16 19 24 26 23 19 21 24 24 25 25 26 27 26 26 24 22 22 23 25 28 30 32 34 34 33 33 32 32 31 30 29 28 27 27 27 28 27 25
4 5 5 4 5 6 4 2 5 5 5 7 9 10 13 13 12 12 9 8 9 10 11 12 12 12 11 10 10 10 10 10 10 11 16 19 19 19 19 19 20 20 20 20 19 18 17 16 17 19 18 16 16 16 16 14 13 14 15 17 22 24 26 25 25 26 23 21 21 23 26 28 27 24 21 21 24 27 29 30 30 32 34 34 35 34 34 33 31 31 30 29 28 28 28 28 27
2 2 3 3 3 5 2 4 4 2 4 7 10 11 13 13 12 13 12 11 12 13 12 11 11 11 11 11 11 11 11 11 11 11 14 18 19 19 19 19 21 21 20 20 20 18 17 17 16 17 18 17 16 15 13 13 16 17 16 19 22 24 25 26 26 25 22 21 21 22 25 27 28 26 24 24 25 27 28 29 30 33 35 37 37 36 36 35 34 33 31 30 30 29 28 28 28
3 2 4 4 4 3 3 7 3 0 4 8 9 12 15 14 12 12 12 13 15 15 14 13 12 11 10 11 12 12 13 10 8 11 13 15 16 18 18 18 19 19 19 20 20 20 19 18 17 18 19 19 18 17 15 16 19 18 17 19 22 24 26 25 26 25 24 24 23 23 24 26 28 29 27 27 26 26 27 29 32 35 37 38 38 37 37 36 35 33 32 32 31 31 30 28 28
4 4 4 4 4 4 4 6 2 2 2 7 8 11 15 15 13 12 12 14 16 16 15 15 15 13 11 12 14 13 11 7 8 11 13 14 15 16 17 17 18 20 20 21 21 21 20 19 19 19 20 20 20 19 16 16 18 17 16 17 18 22 25 24 24 25 25 25 24 24 24 25 27 28 28 28 27 27 29 31 34 37 38 37 36 34 34 35 34 33 33 32 31 32 31 29 28
4 3 4 4 2 3 2 6 3 2 2 6 8 10 14 16 15 14 15 15 16 17 16 15 13 12 12 12 13 11 11 9 9 10 13 15 15 16 16 16 18 20 20 21 21 21 21 21 21 20 22 23 20 19 18 15 16 16 15 15 15 19 25 25 25 25 25 24 23 24 24 25 26 27 28 28 28 30 32 32 33 36 37 37 37 34 34 35 34 34 35 34 33 31 27 28 26
5 4 4 4 0 2 2 3 3 5 4 6 10 9 12 15 15 15 17 16 16 17 17 14 12 12 14 13 11 11 12 11 10 10 11 14 15 16 16 16 17 18 19 20 21 21 21 22 22 20 22 23 20 19 18 15 16 18 19 18 17 20 24 25 25 25 24 23 23 24 25 25 25 26 27 28 29 31 32 32 33 35 37 39 39 38 38 37 36 35 35 35 36 32 26 25 22
6 7 6 5 3 4 4 2 1 5 5 4 8 9 8 10 11 11 9 8 11 13 13 12 11 13 13 11 11 11 12 11 10 9 8 12 14 15 16 16 16 18 19 21 22 22 21 21 21 20 19 20 19 17 17 19 21 22 22 21 19 20 21 22 24 25 25 24 24 24 24 25 25 25 26 27 28 29 31 32 33 35 38 40 39 39 41 39 38 37 36 36 36 35 30 25 22
6 7 8 9 8 6 4 4 5 5 3 2 3 7 4 3 6 7 4 5 9 9 10 11 12 11 10 9 10 10 10 10 9 9 7 9 13 14 15 16 17 18 19 20 21 21 19 18 19 19 17 18 19 17 20 24 24 23 24 24 22 22 22 23 26 27 26 26 24 23 23 25 25 26 26 27 29 30 31 32 33 35 38 40 40 39 40 40 39 38 37 36 33 32 31 27 25
5 3 3 7 8 5 4 4 4 4 4 1 2 5 6 3 6 10 9 10 13 11 10 11 11 9 8 8 8 7 6 7 6 7 8 8 11 13 14 17 18 18 18 18 18 19 18 17 18 18 16 17 19 18 22 27 26 24 26 26 25 25 24 25 26 26 26 25 24 23 24 25 26 27 27 28 31 32 33 33 33 36 38 39 39 39 40 40 40 39 37 37 32 28 29 28 27
3 1 3 2 4 3 2 3 3 4 7 4 7 5 8 7 7 12 14 14 16 14 11 11 11 9 7 6 4 3 2 3 3 5 6 8 9 11 13 15 17 16 17 17 17 18 17 16 18 18 17 18 19 18 22 28 28 26 26 24 24 26 25 24 25 25 25 26 26 25 26 26 27 28 29 30 31 32 33 32 33 35 37 38 38 37 38 38 40 38 35 34 30 28 30 30 28
0 2 2 2 2 0 1 1 3 3 6 6 6 6 6 8 4 10 14 14 13 12 11 11 9 5 3 2 2 1 0 1 2 3 4 6 8 9 10 12 14 15 15 17 17 17 18 17 18 18 17 17 18 19 24 29 29 28 27 23 21 23 22 21 23 24 25 26 27 27 27 28 29 30 30 31 31 31 32 32 33 35 36 37 36 34 34 36 38 38 35 33 29 28 31 27 28
3 4 4 5 4 3 2 2 4 2 6 7 6 9 5 10 5 6 8 8 9 9 9 7 4 4 4 4 3 2 1 1 1 2 2 2 4 6 8 10 12 14 15 16 16 17 18 17 17 18 17 15 16 21 26 29 29 28 28 24 19 20 20 20 21 23 25 26 26 27 28 29 30 31 31 32 31 31 32 32 33 34 33 33 33 30 31 34 35 36 36 33 30 29 29 23 25
6 7 5 5 3 2 1 2 1 2 7 6 7 12 6 8 5 5 7 5 6 8 6 4 4 6 5 4 4 3 2 2 1 1 1 1 1 3 6 8 11 13 14 15 16 16 17 17 17 18 17 15 14 20 26 29 29 29 30 26 21 21 22 22 23 22 23 25 26 28 28 29 30 31 31 32 32 31 32 32 32 32 30 30 30 29 32 35 36 36 35 33 32 29 27 23 23
5 5 4 3 2 2 2 3 2 4 7 1 4 7 7 7 4 5 6 3 5 5 3 1 3 2 5 5 4 3 3 2 2 2 3 3 3 4 6 8 10 12 13 14 15 15 16 17 17 17 17 16 14 19 27 29 29 30 29 24 20 22 24 24 25 25 25 27 28 29 29 29 30 30 31 32 32 33 34 34 33 32 30 31 33 33 34 36 37 39 37 35 33 29 26 24 23
4 4 5 4 3 3 5 5 4 6 5 2 2 2 5 11 10 6 5 4 6 6 2 3 5 2 3 5 5 4 3 3 3 3 3 4 4 5 7 8 10 12 13 14 14 14 15 15 16 17 17 17 15 18 26 29 29 29 29 25 22 23 25 26 27 27 28 29 30 31 31 31 32 32 32 33 33 34 35 36 35 35 33 33 35 35 34 35 36 38 39 36 33 30 27 24 23
7 7 7 6 5 5 7 6 5 5 3 2 2 1 4 11 9 10 14 11 10 8 4 3 4 5 4 3 6 5 4 4 3 3 3 4 5 6 8 9 10 11 12 14 14 14 14 14 15 16 16 18 18 18 25 30 30 31 31 30 27 26 26 27 28 28 29 30 30 32 33 34 35 35 34 34 34 35 35 36 36 35 35 35 35 35 34 34 34 36 37 35 32 31 28 24 24
10 8 6 7 6 7 7 5 5 5 2 2 3 2 5 6 2 2 6 6 7 7 6 5 4 6 5 2 5 6 6 6 3 3 4 5 6 8 9 10 11 12 13 14 15 14 14 14 14 15 16 19 19 19 24 29 30 31 32 32 30 29 28 28 28 28 28 28 29 32 34 35 35 35 34 34 35 35 35 35 34 33 34 35 35 35 34 34 34 34 35 34 31 30 28 25 23
7 5 6 7 5 6 5 1 1 1 2 2 4 4 6 5 5 5 2 2 5 6 5 6 7 8 5 4 7 6 6 7 5 5 6 6 8 9 10 11 11 12 14 15 16 16 16 15 15 16 17 19 20 19 23 27 29 30 32 31 30 30 29 28 28 28 27 27 28 30 33 35 35 33 33 34 36 36 35 34 33 34 34 35 35 35 34 34 34 33 33 32 30 28 27 24 22
5 5 7 3 2 2 4 1 3 2 5 5 5 7 7 7 12 11 10 9 9 7 6 6 8 9 6 6 9 5 5 6 6 6 6 6 8 9 10 12 12 14 15 17 17 17 17 16 16 17 18 19 20 20 21 25 28 30 31 32 30 29 29 29 29 28 27 27 27 29 31 32 32 31 31 34 35 35 34 33 33 34 34 34 34 34 33 33 33 32 32 31 29 27 25 23 22
3 5 6 3 4 1 3 4 2 3 8 6 6 11 9 7 8 3 7 11 11 10 9 9 10 9 7 9 8 3 6 6 6 6 5 6 8 9 10 12 13 14 15 17 18 17 17 17 17 18 19 20 20 20 20 23 28 30 31 32 32 30 31 30 29 28 28 28 29 31 30 28 28 28 31 34 34 33 34 33 33 33 32 33 33 33 32 33 32 31 30 29 28 26 24 22 22
0 2 2 3 2 5 5 5 5 7 9 6 8 12 10 10 9 4 5 10 10 11 11 11 10 9 9 10 5 5 6 6 5 5 5 5 7 9 10 11 12 14 14 16 17 17 17 18 18 18 19 19 20 20 20 23 28 30 30 32 32 32 32 31 30 28 27 28 30 32 31 28 28 28 30 32 34 34 34 33 32 32 31 31 31 32 32 31 31 30 29 28 26 25 24 24 24
1 3 2 2 3 4 5 6 5 7 8 7 9 10 9 9 10 10 12 12 10 11 10 9 9 10 11 8 3 5 5 5 5 5 6 6 7 8 9 11 12 13 14 15 17 18 19 19 18 18 18 19 19 20 20 22 28 31 31 32 32 32 33 32 29 28 28 29 30 31 30 29 29 29 30 32 33 33 33 33 32 31 31 31 31 31 30 30 30 29 28 27 26 25 26 26 25
6 5 7 5 3 1 3 4 5 5 6 7 7 8 9 8 6 9 12 11 9 8 6 6 8 10 8 2 1 2 4 5 5 5 5 5 6 7 8 8 9 11 12 14 16 17 18 18 19 19 19 19 20 20 20 21 26 31 31 31 32 32 33 32 29 28 29 30 30 30 30 30 29 29 30 31 31 32 32 32 31 32 32 31 31 30 30 29 29 28 28 27 27 27 27 27 25
10 10 10 11 8 5 4 6 5 2 4 6 6 8 11 6 3 6 8 5 3 1 2 5 6 7 3 2 1 1 2 4 5 4 4 5 5 7 8 7 8 10 11 13 15 16 17 18 18 19 19 20 20 21 20 20 23 29 31 31 32 32 32 31 29 29 29 30 30 30 29 30 30 30 30 30 31 32 32 32 32 32 32 31 31 30 29 29 29 29 29 29 29 29 28 27 26
Wind_Direction
338 333 329 258 228 255 246 238 239 175 246 102 97 145 111 75 83 144 144 139 145 90 49 54 31 359 357 349 343 351 15 9 9 1 35 109 139 133 131 136 138 142 140 138 146 152 144 137 135 132 128 130 131 130 129 125 126 124 120 119 115 113 109 105 102 98 95 92 86 81 76 70 67 66 66 68 72 75 75 74 77 81 85 87 88 88 88 90 88 84 82 77 73 73 73 70 70
337 323 285 240 221 251 256 223 259 156 194 121 99 64 103 128 172 153 124 97 72 83 81 79 109 65 349 335 312 302 48 41 43 60 83 125 136 130 141 144 145 149 144 143 147 151 147 144 141 131 130 135 134 133 129 128 129 126 124 121 118 116 110 106 102 97 93 91 87 82 76 69 66 65 66 68 73 78 78 77 79 81 85 87 90 92 91 95 93 87 84 77 73 74 73 71 73
327 295 234 233 219 238 253 228 273 226 198 104 102 93 125 160 150 109 83 77 80 95 95 90 130 127 261 268 311 310 78 76 78 85 109 141 144 139 147 149 151 153 147 145 146 148 149 149 142 134 140 149 142 138 135 131 129 127 126 124 122 118 113 109 102 97 94 92 88 82 74 68 64 62 63 66 73 79 79 78 81 83 86 89 93 95 91 91 89 86 81 76 76 75 73 69 76
322 217 216 256 232 222 246 244 317 306 31 77 105 115 148 151 114 96 84 87 93 109 105 119 150 96 270 289 352 324 98 96 81 87 130 141 130 136 146 150 154 155 150 149 146 145 156 154 145 141 143 156 153 143 141 135 132 130 125 123 122 118 114 111 105 100 95 94 91 83 75 69 65 62 62 68 77 82 82 80 83 85 87 92 96 95 92 91 88 85 81 81 82 81 77 70 76
82 232 242 269 264 246 276 269 293 297 40 31 84 123 148 124 113 106 102 103 103 110 95 169 153 90 266 306 332 317 88 105 97 86 124 120 110 136 151 152 154 159 155 154 150 146 163 161 149 144 143 160 163 154 148 140 135 131 126 124 122 120 118 114 109 103 99 98 94 86 78 72 67 64 64 71 82 86 84 83 86 87 90 95 96 97 98 94 90 89 88 89 87 84 80 74 81
110 231 238 254 278 327 264 230 191 75 50 360 51 118 134 119 123 118 115 111 110 91 80 220 314 134 213 127 336 10 51 116 124 98 115 127 124 141 154 155 157 160 157 158 153 150 166 165 154 146 144 161 168 160 155 150 143 134 131 130 128 125 121 117 112 107 104 101 97 89 81 75 71 68 67 74 85 90 89 87 89 90 93 95 94 97 99 94 94 94 92 91 87 84 79 78 88
257 213 196 219 204 263 258 261 45 71 65 2 42 112 131 125 126 128 135 130 134 130 162 224 324 262 208 117 167 76 67 87 118 103 109 134 141 149 158 161 162 161 159 159 155 156 168 165 158 150 145 159 167 165 159 159 156 144 138 135 134 130 124 123 117 112 109 103 98 91 83 78 74 72 72 76 85 91 92 92 93 94 96 95 91 92 93 92 92 91 91 93 89 86 82 85 95
252 240 195 230 201 227 271 68 47 46 73 54 57 82 108 132 139 143 152 144 150 152 172 197 254 254 135 131 207 107 106 88 103 106 115 139 150 156 160 167 167 165 163 160 157 163 172 166 161 154 149 155 162 168 166 167 164 154 147 141 140 135 131 128 122 117 111 105 100 92 86 81 76 74 75 78 86 91 93 95 98 98 98 95 92 92 92 93 96 95 96 97 93 89 86 94 100
233 247 219 246 225 202 250 104 86 69 99 128 117 85 93 138 154 156 158 145 138 149 160 164 212 260 120 161 110 117 138 115 116 119 127 144 153 159 164 176 174 168 167 165 160 162 173 170 165 158 154 157 160 167 167 170 169 162 154 151 149 142 140 134 127 122 116 109 103 96 90 86 80 77 78 81 89 96 97 98 100 102 103 101 99 98 97 99 101 100 98 97 97 95 93 100 103
216 234 237 249 237 202 205 135 109 101 114 130 132 135 141 151 167 171 169 153 138 155 127 116 199 250 242 169 116 118 134 128 135 131 135 145 154 166 171 182 178 170 170 170 162 160 173 174 169 167 161 161 165 166 165 170 171 166 160 159 158 151 148 142 135 128 121 115 109 103 96 92 86 82 83 85 91 100 104 103 103 103 105 105 105 105 105 104 101 100 99 98 101 101 99 105 105
213 202 253 251 226 223 202 112 110 112 123 142 144 142 154 162 177 183 181 157 144 162 119 136 213 219 231 191 109 106 122 137 147 142 145 149 156 165 170 179 179 175 173 172 165 164 176 177 175 175 170 166 170 170 164 170 171 167 165 167 165 159 155 148 142 134 127 122 116 110 103 99 93 90 90 90 93 99 106 110 109 108 107 108 109 108 109 108 104 103 101 101 106 106 105 108 107
231 188 214 244 236 253 31 45 107 118 136 168 164 147 158 167 180 186 192 180 162 189 163 177 227 313 222 196 110 124 138 152 146 143 147 149 158 163 169 177 181 181 180 176 169 168 175 178 181 182 177 172 176 177 170 171 171 169 171 174 171 165 160 152 146 140 136 130 124 119 111 105 100 97 97 97 98 101 107 112 114 114 113 113 114 114 112 109 106 105 106 110 113 111 110 111 108
256 203 217 242 303 352 21 337 104 126 178 183 162 146 159 172 189 193 186 188 178 197 174 163 123 309 245 125 109 138 150 157 142 139 146 153 162 167 171 171 178 181 183 179 173 174 175 177 180 186 185 181 184 185 178 176 176 174 176 178 177 171 164 159 154 148 145 141 134 128 120 111 106 104 104 105 105 108 111 113 113 114 115 115 118 118 117 117 115 115 115 117 116 114 113 112 109
294 234 247 253 34 276 275 297 129 229 201 141 135 142 164 180 194 200 185 194 181 164 105 111 122 263 254 152 146 162 154 151 141 137 145 155 162 172 178 168 165 168 175 173 171 173 176 179 180 188 190 187 190 190 186 182 181 180 184 184 182 179 172 166 162 158 154 150 144 133 126 118 113 112 113 113 112 114 116 117 118 115 117 120 120 119 121 121 120 120 119 118 116 115 114 111 108
317 275 264 259 211 237 209 258 237 261 158 123 138 149 167 173 167 204 209 210 129 81 91 112 206 266 296 224 131 131 142 143 140 139 145 157 162 172 176 174 170 162 168 165 171 177 180 182 183 190 192 194 192 190 192 191 190 185 189 193 188 185 180 174 170 166 162 158 153 140 132 125 120 121 122 121 118 119 121 124 126 124 124 124 122 118 117 116 115 116 115 115 115 115 114 111 107
313 278 245 243 228 222 185 208 196 250 126 120 145 153 168 164 158 207 31 345 76 100 160 158 173 267 351 35 80 100 127 136 140 141 147 160 165 170 170 175 174 171 185 183 184 186 185 184 188 190 191 199 197 195 196 196 199 193 192 196 193 191 186 181 176 170 169 167 161 149 140 133 128 129 129 129 127 126 126 128 130 130 129 125 121 118 117 116 115 114 113 115 115 115 113 110 107
293 251 236 236 218 209 177 187 183 222 96 117 151 162 176 165 158 201 65 297 238 146 201 181 152 253 16 82 107 112 127 133 140 148 156 167 171 174 175 182 182 183 194 199 200 192 186 189 196 193 188 198 198 201 199 197 204 198 195 199 195 195 195 189 181 176 176 174 168 158 150 144 137 136 138 137 134 131 130 131 132 132 129 125 122 122 120 116 115 113 112 112 111 111 109 108 108
243 222 230 240 222 200 165 192 181 18 98 138 161 175 192 170 160 166 145 216 223 194 204 195 179 194 116 109 124 131 138 141 149 161 168 175 182 184 188 192 194 195 197 203 206 199 194 194 196 196 189 191 195 202 201 202 208 200 195 200 198 198 201 193 186 184 180 178 176 164 154 150 144 143 147 144 140 137 136 136 136 135 131 127 126 124 122 119 118 116 115 114 113 112 109 107 107
238 233 235 243 259 68 45 343 66 30 13 139 157 183 201 172 151 162 198 210 200 217 216 201 212 200 156 136 142 146 149 155 161 173 179 184 189 191 193 197 201 202 201 202 201 199 203 201 192 194 198 196 194 199 203 203 211 209 200 199 200 200 201 195 192 189 180 181 181 172 166 160 150 149 156 154 149 144 142 142 140 139 133 130 129 126 124 122 120 119 118 116 112 109 106 105 103
238 259 242 240 55 70 52 26 65 51 10 148 159 176 196 162 135 160 214 228 204 224 227 203 212 211 185 162 154 157 160 167 174 184 189 194 195 195 196 197 201 204 203 199 194 196 203 203 192 192 200 201 193 198 213 207 206 212 205 200 200 200 201 198 197 193 186 188 186 184 185 171 155 159 168 162 156 150 146 148 144 141 136 132 130 127 126 124 123 122 119 113 106 103 101 100 100
192 238 266 28 27 68 70 57 65 53 2 195 147 160 196 164 140 183 217 238 225 231 234 220 226 222 185 166 161 164 169 174 183 193 197 201 201 200 200 199 201 203 203 197 197 201 200 201 197 199 203 199 197 203 217 214 207 207 206 206 205 204 204 202 201 200 195 194 193 192 196 181 163 172 176 161 158 158 153 153 146 140 137 134 131 128 128 127 126 123 117 114 113 112 107 103 102
211 194 13 30 345 7 74 74 55 39 354 174 150 169 183 139 179 218 223 234 231 250 268 225 246 41 149 160 167 169 177 182 187 197 202 205 204 204 202 199 201 201 202 199 201 205 201 200 199 204 207 200 201 208 212 220 220 217 217 213 210 209 206 204 204 205 204 200 201 198 194 187 173 179 176 159 160 164 159 157 149 146 142 138 135 133 132 131 128 123 122 125 124 120 114 110 108
250 157 86 48 5 28 72 77 44 352 291 163 161 147 131 167 216 219 228 238 236 64 53 55 65 70 129 157 167 174 185 188 192 199 202 206 206 206 202 197 201 198 196 196 197 202 199 200 202 203 204 200 201 206 209 220 224 226 228 221 215 212 206 208 208 209 212 208 207 202 192 190 183 180 175 164 167 168 162 159 158 157 149 143 142 141 140 138 135 133 133 131 126 120 113 107 106
267 167 109 73 29 44 52 58 71 321 307 57 22 1 203 221 226 205 234 242 244 124 93 84 86 97 142 164 173 186 193 194 199 203 203 208 209 208 206 200 201 197 193 195 196 198 195 198 206 207 208 207 204 202 207 215 220 228 231 223 219 218 213 215 213 210 213 212 209 202 194 195 191 182 177 173 176 175 167 164 170 166 156 153 156 151 147 147 147 144 138 132 126 120 113 107 106
257 148 112 103 71 81 73 83 122 142 286 347 313 248 236 237 316 276 249 246 245 224 146 130 131 131 169 188 189 194 198 202 203 204 204 210 212 209 208 205 201 198 199 199 197 196 196 200 204 206 211 212 210 212 217 221 222 224 227 224 224 228 225 219 215 211 211 210 207 203 200 200 196 190 187 183 181 183 178 177 179 170 160 163 161 154 152 155 151 144 138 133 129 123 116 112 111
123 116 121 128 113 99 103 130 123 138 226 161 234 235 224 93 12 267 251 249 236 208 188 180 187 196 203 202 204 203 204 206 203 202 202 204 210 208 207 206 203 203 200 198 198 198 199 206 208 205 207 211 211 216 222 224 223 222 222 228 232 234 228 215 212 211 210 211 207 208 207 203 202 200 196 190 185 185 185 187 185 177 172 170 166 164 163 161 152 144 140 135 132 127 120 117 116
100 121 119 121 125 123 149 156 133 162 158 183 242 246 219 133 208 251 243 237 172 187 224 216 217 229 225 214 211 212 211 211 204 199 198 198 204 206 205 204 204 204 198 196 200 200 199 207 212 210 208 212 213 215 221 225 225 226 226 228 232 237 231 218 215 215 215 217 212 211 210 205 206 203 199 196 192 192 195 196 191 189 185 176 174 176 172 164 155 149 144 139 135 129 121 119 118
124 135 131 130 144 149 176 180 156 189 154 189 260 276 258 169 210 245 210 103 152 201 225 215 225 237 233 227 215 211 216 216 205 198 198 199 201 204 204 204 204 202 200 200 200 199 200 207 212 213 215 220 224 224 226 230 229 229 229 227 229 234 230 220 217 215 215 217 215 215 213 208 206 203 203 200 197 200 204 201 195 195 191 182 181 182 173 166 161 155 149 143 138 130 124 121 119
137 176 182 154 181 187 181 171 161 215 179 162 265 278 253 216 227 241 186 137 160 192 224 218 226 233 230 230 218 211 215 211 205 204 206 206 204 205 207 207 204 201 202 202 200 198 200 207 211 214 220 225 231 232 230 231 230 227 225 225 227 228 225 220 216 212 209 210 212 219 219 213 208 205 208 205 201 204 207 203 196 194 192 187 185 180 174 171 166 158 151 147 140 131 126 122 120
155 203 251 171 205 201 175 159 157 213 160 141 241 269 255 223 226 225 146 153 182 213 238 236 234 232 226 224 221 223 215 207 208 210 209 209 209 207 209 208 202 200 200 199 200 201 201 210 214 216 223 227 232 234 230 228 227 224 221 222 225 226 227 226 225 224 221 215 214 221 223 220 216 210 208 205 201 203 205 202 198 193 192 191 186 180 176 174 167 157 151 146 138 131 127 124 123
172 184 249 217 229 172 151 160 174 200 158 154 222 255 271 267 205 136 116 168 207 239 246 242 242 235 228 223 223 230 222 215 215 214 210 208 209 206 204 203 199 198 198 198 202 205 206 217 221 221 226 229 231 233 230 226 224 221 219 220 222 223 228 228 228 228 228 229 230 231 228 225 223 215 208 202 200 204 203 200 198 194 193 191 185 180 178 173 165 157 152 145 137 131 129 127 124
187 194 214 208 231 150 138 159 188 205 151 174 208 247 259 265 105 101 101 172 204 245 253 250 250 244 239 231 228 237 232 224 220 217 211 205 206 203 200 198 196 196 197 197 202 208 208 217 224 224 226 230 231 233 232 226 223 219 216 222 222 219 225 226 223 225 229 234 238 241 235 227 225 216 206 198 194 201 197 192 195 194 194 190 183 180 178 171 163 157 153 151 145 137 132 129 126
195 228 227 184 213 193 151 152 190 213 142 186 213 253 267 236 117 121 141 171 203 238 252 252 252 251 248 238 232 236 235 228 221 217 210 203 205 202 199 198 197 197 199 197 199 206 204 209 222 222 224 230 226 225 227 222 216 212 214 221 220 214 217 222 225 230 234 236 239 242 234 228 228 217 206 202 198 197 192 189 193 194 194 189 182 179 177 171 165 159 155 156 153 145 137 133 128
195 219 241 201 219 231 185 147 154 188 214 218 218 239 259 263 268 229 174 173 195 231 251 255 258 258 256 248 238 236 234 229 223 217 206 202 204 202 201 201 200 199 200 200 199 202 202 203 217 220 220 221 214 216 222 216 206 206 210 218 220 218 219 223 227 231 237 238 235 232 226 223 224 213 204 208 204 199 196 195 197 196 193 186 183 181 175 171 167 165 162 159 158 152 144 137 133
209 196 226 222 215 237 246 153 148 178 212 239 235 241 254 259 266 266 247 219 218 240 252 257 261 260 259 253 245 241 236 232 228 218 204 200 200 200 199 199 200 200 200 201 199 198 199 199 208 215 213 208 207 214 217 208 200 201 203 214 220 220 221 224 227 229 232 232 226 224 222 220 217 205 199 203 203 203 202 201 199 195 190 186 184 179 174 172 170 171 169 163 158 153 147 141 135
311 203 251 257 231 233 208 108 121 197 233 243 246 255 262 261 262 266 266 259 254 257 255 256 257 255 254 250 247 242 238 238 228 210 196 193 195 196 196 195 198 200 197 196 196 195 194 194 197 204 206 203 199 200 202 199 200 201 205 216 220 218 219 222 225 226 224 223 222 223 223 221 215 205 203 208 211 211 207 203 198 192 189 188 185 180 177 176 174 174 172 166 158 150 145 142 137
325 304 281 265 269 266 117 103 104 222 265 258 254 264 270 269 268 269 272 272 270 264 255 252 250 247 244 242 244 240 240 238 200 184 184 184 188 191 193 194 194 195 194 193 193 193 192 192 193 197 202 203 198 194 196 201 200 200 206 213 216 215 216 218 222 223 220 219 221 223 224 224 218 209 210 217 217 211 203 198 193 188 188 187 184 182 180 177 175 175 171 167 163 154 146 142 141
282 271 276 259 256 264 102 100 132 153 259 271 274 277 274 273 271 270 271 269 268 262 253 250 248 246 244 242 243 242 243 226 166 171 180 180 183 185 189 193 193 194 194 193 192 192 191 192 195 197 200 200 198 197 198 203 203 199 202 207 212 214 214 215 217 218 219 220 223 225 226 228 224 218 219 220 215 208 201 195 191 188 186 184 181 180 179 177 177 177 171 164 161 158 151 147 146
249 250 268 265 262 269 106 99 125 173 237 280 291 287 278 279 276 267 260 257 260 259 254 253 254 253 248 244 246 246 246 229 197 190 183 180 181 181 187 193 196 198 196 194 193 192 191 194 196 196 201 203 200 199 200 204 204 201 202 202 204 210 211 211 214 216 218 222 224 225 225 226 227 225 221 216 211 206 199 195 193 188 186 185 184 182 182 182 181 180 177 168 159 154 152 155 154
233 234 251 250 256 279 244 111 140 195 228 291 297 288 276 275 272 264 253 246 252 259 259 258 257 254 251 250 252 251 250 242 229 214 187 175 177 181 189 194 196 197 195 193 193 192 193 196 197 194 200 204 199 198 201 203 202 199 200 200 202 208 210 211 217 221 223 223 221 220 222 223 223 219 215 212 210 205 197 194 192 187 187 188 188 187 186 186 185 182 179 173 162 155 157 166 169
226 223 238 250 260 265 260 5 321 223 214 277 289 283 268 254 250 259 255 233 243 253 256 258 247 243 247 252 252 247 248 249 243 234 197 171 177 186 191 192 192 194 196 195 193 193 195 197 196 191 192 196 195 194 198 203 203 199 199 202 207 211 212 213 217 221 221 218 215 217 220 219 217 213 211 210 207 202 198 195 190 187 188 188 190 190 188 188 188 183 179 175 171 166 165 172 180
233 213 225 246 266 282 287 342 335 274 228 181 291 297 283 208 227 257 263 235 245 240 232 241 240 235 233 237 242 239 240 243 242 244 220 179 180 186 188 188 190 195 198 197 195 195 196 194 192 189 187 193 195 194 200 203 201 201 200 201 201 202 206 210 212 216 215 211 211 216 217 214 212 211 210 207 202 200 198 195 191 190 189 189 191 192 189 188 187 184 182 178 177 175 169 171 179
249 220 245 251 262 285 295 316 312 288 298 189 188 290 285 258 249 257 260 258 260 254 242 247 249 244 232 227 237 238 238 237 231 236 230 203 187 183 187 189 190 196 197 195 194 195 194 190 188 187 185 194 198 196 204 205 202 204 204 203 203 201 203 210 212 214 213 210 210 211 210 209 208 207 206 204 202 200 197 194 193 192 192 191 190 191 190 189 188 186 185 182 179 179 177 175 178
247 28 352 264 241 249 257 297 270 288 322 268 192 225 271 274 249 236 240 250 259 261 259 258 256 253 246 231 232 239 249 251 235 228 230 222 205 193 191 190 190 194 192 189 190 190 191 188 187 189 190 199 201 198 206 208 204 206 206 206 210 210 210 213 215 214 212 209 207 205 205 208 209 207 205 204 204 201 197 197 196 193 194 192 189 190 191 190 189 186 184 184 182 184 187 183 182
11 57 19 76 104 155 173 276 283 307 322 283 192 179 256 281 241 207 220 232 245 253 255 255 251 242 227 182 135 79 351 270 259 242 236 229 217 207 198 190 188 190 188 187 187 186 188 188 188 192 192 197 200 202 208 209 206 207 207 205 209 212 212 213 213 213 212 210 207 205 207 210 210 206 204 203 202 200 198 200 199 196 195 192 189 191 192 190 189 188 186 186 186 190 193 190 189
132 132 95 84 93 76 96 269 301 316 289 274 192 169 244 290 267 183 194 215 227 239 244 244 218 145 131 124 119 125 148 187 240 254 253 235 217 205 195 185 181 184 186 186 185 185 188 189 190 193 193 193 201 211 214 211 209 209 208 206 203 203 203 201 205 208 210 210 210 210 210 210 208 203 202 202 202 201 200 200 198 195 195 193 191 191 192 190 190 191 190 189 192 195 194 194 196
143 147 120 105 119 104 150 246 306 278 267 262 176 172 206 290 281 162 170 204 227 225 196 167 152 135 130 124 127 137 140 147 163 176 166 146 152 171 178 179 178 180 182 184 185 187 188 189 190 193 196 196 203 217 218 214 213 212 212 211 206 204 202 200 202 205 209 211 211 212 210 208 206 202 201 202 203 203 201 199 196 193 193 192 191 192 194 193 192 193 192 191 195 197 195 197 197
158 158 157 164 169 176 206 201 167 234 253 257 139 178 200 249 260 155 163 203 257 246 165 161 258 160 133 139 146 144 147 152 151 162 160 152 151 161 174 180 179 179 181 185 186 186 188 189 190 192 199 201 205 217 218 214 214 215 215 213 210 208 207 208 210 212 216 214 211 210 207 204 205 204 202 203 204 204 203 202 198 193 194 195 195 197 199 198 197 197 196 196 197 196 196 197 193
199 184 177 202 219 206 217 208 194 228 235 102 94 197 221 244 254 241 232 241 250 257 295 304 287 274 160 153 156 159 167 174 168 167 163 166 169 166 176 184 182 182 184 187 188 187 190 192 191 194 200 203 207 215 216 215 215 215 214 213 214 214 215 218 219 220 221 217 212 208 205 203 205 205 204 204 205 206 205 204 202 199 200 202 203 203 203 203 201 199 198 198 199 197 197 197 193
196 191 182 200 214 223 231 218 215 233 220 100 107 119 250 260 268 254 245 237 231 246 268 263 264 267 252 170 163 176 185 189 181 176 171 176 179 167 174 184 185 186 186 187 189 189 193 194 194 198 202 206 210 215 216 215 215 217 217 217 217 217 220 222 221 222 222 217 212 211 209 208 207 206 205 204 205 205 205 204 204 204 206 207 207 207 208 207 203 200 199 199 199 199 199 198 196
199 203 200 212 218 233 241 234 242 245 217 128 149 163 238 253 337 291 256 259 255 269 281 263 254 257 256 216 196 192 192 196 184 194 197 184 183 173 173 181 185 188 186 186 190 191 194 197 198 202 205 207 211 214 216 216 216 218 220 220 219 219 220 222 221 221 221 218 217 217 215 213 210 207 206 205 203 203 204 205 206 207 210 211 210 208 209 207 203 200 199 199 200 200 201 200 199
202 202 216 230 234 241 254 288 326 305 322 212 191 227 248 257 296 279 246 278 250 245 254 252 259 259 252 249 239 212 189 190 186 208 213 188 183 178 173 178 184 185 185 186 189 191 193 196 200 205 208 209 212 216 218 217 217 219 221 220 219 219 219 220 220 221 223 223 222 219 216 215 212 209 206 205 205 204 205 207 207 209 211 211 209 208 207 204 201 199 199 199 199 200 201 200 200
181 186 209 218 26 269 252 231 98 72 277 250 216 249 267 280 284 259 212 212 225 222 228 233 249 257 250 249 249 223 162 174 192 210 207 183 182 183 178 180 183 185 186 187 189 190 192 194 198 204 207 210 213 215 217 218 218 220 221 219 218 218 218 220 222 224 227 228 224 217 214 214 212 209 208 208 207 207 208 209 209 209 209 209 207 205 203 201 199 197 197 197 197 198 198 197 197
159 195 191 116 44 329 251 249 221 227 252 253 231 249 262 264 276 261 180 208 228 231 233 233 237 244 245 248 246 179 145 179 201 203 193 176 181 186 183 183 187 188 187 188 190 190 191 195 198 202 206 208 210 210 211 216 219 220 220 219 219 220 221 223 225 228 230 230 224 216 212 211 210 210 212 211 209 209 210 210 210 209 207 206 204 202 200 198 196 195 195 195 195 196 194 190 189
76 284 170 136 232 220 204 225 235 237 246 256 247 251 256 244 247 263 211 216 226 229 228 231 233 232 239 245 227 140 153 183 193 196 189 178 185 189 185 185 190 191 190 190 189 188 192 196 198 203 206 207 208 206 206 214 219 220 220 220 220 221 223 225 227 228 229 228 224 218 215 212 211 213 214 213 211 211 211 209 209 207 205 203 201 199 198 196 195 194 192 192 192 192 190 183 181
26 307 218 193 250 228 209 209 213 232 240 250 258 256 253 243 246 258 251 242 242 239 232 229 231 231 237 241 197 147 168 178 184 201 195 180 182 183 183 186 188 190 192 191 190 190 192 194 198 201 205 206 206 205 205 212 219 221 222 222 221 222 224 226 226 226 226 226 224 223 220 216 214 215 216 214 212 211 210 209 207 205 203 200 198 197 196 194 193 192 190 189 187 186 184 179 177
176 216 212 200 199 243 276 238 215 235 242 246 259 262 262 258 247 252 257 255 250 248 241 234 235 239 239 229 121 154 166 175 185 193 184 167 166 167 172 182 185 190 194 193 194 194 192 193 197 199 202 205 206 207 207 209 216 221 222 222 222 224 226 226 225 225 226 225 226 226 223 217 215 216 216 214 212 210 210 208 205 204 202 199 197 196 194 192 190 188 187 186 183 180 179 176 174
187 200 204 205 196 185 231 230 207 210 246 253 263 270 273 270 223 244 256 249 230 217 253 250 253 261 256 94 78 228 178 189 185 175 166 151 153 159 161 170 181 192 201 201 200 198 196 197 198 199 202 204 204 206 206 204 212 220 222 223 224 225 227 225 223 224 225 225 226 228 224 218 215 217 217 214 212 209 207 206 205 204 201 198 196 194 191 189 188 186 184 182 180 179 177 175 173